Погода в Погиби

Погода в Погиби : погода сейчас, прогноз погоды и архив. Всё, что Вы хотите узнать о погоде в Погиби!

Хотите узнать прогноз погоды в Погиби? Тогда Вам сюда: Погода в Погиби

Поиск расширенной информации на нашем сайте:

Другие новости

Новости СМИ2

Главная страница сайта

Новости сайта

03.07.2017

Напоминаем, что на нашем специализированном сайте Метеоцентр.Азия вы можете получить высокодетализированные автоматические прогнозы погоды по пунктам России, СНГ и мира в авиационном формате (включающие направление и скорость ветра, видимость, явления погоды, количество и форму облачности, нижнюю и верхнюю границу облачности).


Погода в Погиби - сегодня

Время (UTC), дата Ветер
(°,м/с) 
Видим.   Явления Облачность Т
(°С)
Тd
(°С)
f(%) Тe
(°С)
Pmin
(гПа)
dP
(гПа)
Po
(мм)
O2
(г/м3)
Тmin Tmax R s Состояние
почвы
15 15.10.17 320 (СЗ) 2-3{04}  20000 м    ясно 
+1 -1.6 83 1017.2  762  306           
21 15.10.17 320 (СЗ) 4-5{06}  20000 м    9/6 600 м кучево-дожд., средняя 
[Cb cap|Ac trans]
+1.4   1017.5  762    +0.8        сухая 
00 16.10.17 320 (СЗ) 6-8{10}  20000 м    5/0 средняя, верхняя 
[Ac trans|Ci sp]
+2.5 -4.5 60 1017.5  762  305           
03 16.10.17 320 (СЗ) 6-8{10}  20000 м    8/4 600 м кучево-дожд., средняя 
[Cb cap|Ac trans]
+3.4 -4.4 57 +1  1016.8  -0.7  762  304           
06 16.10.17 320 (СЗ) 7-8{10}  20000 м    8/5 600 м кучево-дожд., средняя 
[Cb cap|Ac trans]
+4 -5.1 51 +1  1016.8  762  303           
09 16.10.17 320 (СЗ) 6-8{10}  20000 м    5/0 средняя, верхняя 
[Ac trans|Ci sp]
+2.7 -5 57 1017.5  0.7  762  305    +4.6       
12 16.10.17 320 (СЗ) 6-8{10}  20000 м    4/0 верхняя 
[Ci sp]
+1.9 -6.1 55 -1  1017.5  762  306           
15 16.10.17 320 (СЗ) 4-6{08}  20000 м    3/0 верхняя 
[Ci sp]
+1.3 -2.8 74 -1  1017.1  -0.4  762  306           
18 16.10.17 320 (СЗ) 4-6{08}  20000 м    3/0 верхняя 
[Ci sp]
+1.3 -2.5 76 -1  1016.9  -0.2  762  306           
21 16.10.17 320 (СЗ) 6-8{10}  20000 м    3/0 верхняя 
[Ci sp]
+0.9 -2.7 77 -2  1016.8  -0.1  762  306  +0.6        сухая 
00 17.10.17 320 (СЗ) 6-6{10}  20000 м    3/0 средняя, верхняя 
[Ac trans|Ci sp]
+1.3 -4.2 67 -2  1016.9  0.1  762  306           
03 17.10.17 320 (СЗ) 6-8{10}  20000 м    5/3 600 м кучево-дожд., верхняя 
[Cb cap|Ci sp]
+2.9 -7.6 46 1016.9  762  305           
06 17.10.17 320 (СЗ) 5-7{09}  20000 м    8/3 600 м кучево-дожд., средняя, верхняя 
[Cb cap|Ac trans|Ci sp]
+3.8 -0.2 75 +1  1017.1  0.2  762  303           
09 17.10.17 320 (СЗ) 5-7{09}  20000 м    5/3 600 м кучево-дожд., средняя, верхняя 
[Cb cap|Ac trans|Ci sp]
+1.1 -6.4 57 -2  1018.4  1.3  763  307    +4.4       
12 17.10.17 320 (СЗ) 7-8{10}  20000 м    4/0 верхняя 
[Ci sp]
+0.2 -3.8 74 -4  1019.5  1.1  764  308           
15 17.10.17 320 (СЗ) 8-10{12}  20000 м    3/0 верхняя 
[Ci sp]
-0.7 -2.9 85 -5  1019.5  764  309           
18 17.10.17 320 (СЗ) 8-10{12}  20000 м    3/0 верхняя 
[Ci sp]
-0.8 -3 85 -5  1019.1  -0.4  764  309           
21 17.10.17 320 (СЗ) 7-9{11}  20000 м    8/3 600 м кучево-дожд., средняя 
[Cb cap|Ac trans]
-1.2 -3.8 82 -5  1019.1  764  310  -1.6        замёрзшая 
00 18.10.17 320 (СЗ) 7-10{11}  20000 м    8/3 600 м кучево-дожд., средняя, верхняя 
[Cb cap|Ac trans|Ci sp]
+0.3 -3 78 -4  1022  2.9  766  309           
03 18.10.17 320 (СЗ) 7-10{11}  20000 м    5/3 600 м кучево-дожд., средняя, верхняя 
[Cb cap|Ac trans|Ci sp]
+3.6 -4.9 54 1022.1  0.1  766  305           
06 18.10.17 360 (С) 5-7{10}  20000 м    6/3 600 м кучево-дожд., средняя, верхняя 
[Cb cap|Ac trans|Ci sp]
+2.8 -2.4 69 1022.4  0.3  766  306           
09 18.10.17 270 (З) 4-6{07}  20000 м    5/3 600 м кучево-дожд., средняя 
[Cb cap|Ac trans]
+2.5 -6.1 53 1023.2  0.8  767  307    +4.2       
12 18.10.17 290 (З) 3-4{05}  20000 м    3/0 средняя 
[Ac trans]
+1.9 -6.1 55 1023.6  0.4  767  308           
15 18.10.17 320 (СЗ) 2-3{04}  20000 м    3/0 средняя 
[Ac trans]
-0.5 -3.3 81 -1  1023.7  0.1  767  310           
18 18.10.17 320 (СЗ) 3-4{05}  20000 м    3/0 средняя 
[Ac trans]
-1.1 -3.7 82 -3  1023.9  0.2  767  311           
Время (UTC), дата Ветер
(°,м/с) 
Видим.   Явления Облачность Т
(°С)
Тd
(°С)
f(%) Тe
(°С)
Pmin
(гПа)
dP
(гПа)
Po
(мм)
O2
(г/м3)
Тmin Tmax R s Состояние
почвы

Для получения пояснительной информации подведите курсор к названию столбца.

ПОГОДА в Погиби - архив

Всё, что Вы хотите узнать о погоде в Погиби - удобно и подробно!

Выберите нужную дату (начиная с 1 января 2015* года) и нажмите кнопку "Найти".
Будут отображены архивные сводки погоды по пункту Погиби, начиная с указанной даты.


Отображать данные в формате CSV (для использования в таблицах Excel)


Внимание! Наш архив погоды предназначен исключительно для личного некоммерческого использования в познавательных целях. Если Вам необходимы официальные справки о состоянии погоды (для производственных, юридических, коммерческих и т.п. целей), обращайтесь в органы Росгидромета.

*Примечание: данная дата относится к архиву по метеостанциям СССР (Россия, СНГ, Балтия).
Архив по метеостанциям Зарубежной Европы и Азии (кроме Китая) хранится 10 дней, по другим регионам земного шара (Китай, Африка, Америка, Австралия, Океания) - 1 день.

Погиби - район местоположения метеостанции


Название, широта, долгота, высота метеостанции:
Погиби 52.2°ш. 141.6°д. 6 м над ур. моря [Российская Федерация]

Дополнительная информация

В oтличие oт бoльшинства пoгoдных сайтoв мы публикуем пoдрoбную метеoинфoрмацию в детальнoм прoфессиoнальнoм фoрмате.

Характеристики температуры и влажнoсти вoздуха измеряются на высoте 2 м в тени вдали oт зданий и деревьев.
Скoрoсть ветра измеряется на высoте 10 м (на урoвне рoста челoвека скoрoсть ветра ниже в 1.5-2 раза). Если метеoстанция нахoдится в гoрoде или в лесу, тo скoрoсть ветра занижена на 2-4 м/с пo сравнению с oткрытым местoм. Скoрoсть ветра над акватoриями крупных рек и oзёр, а также на вершинах хoлмoв на 2-5 м/с выше, чем в oбычных услoвиях.
Атмoсфернoе давление в разных тoчках местнoсти мoжет значительнo oтличаться oт давления на метеoстанции, в зависимoсти oт услoвий рельефа (при пoдъёме на 10 м давление пoнижается примернo на 1 мм рт.ст.).